Location: Hutchins
(43.0916°N, 93.8811°W)
Time: 05:14:32
(UTC+00:00)

Envisat - Visible Passes

Search period start: 07 October 2024 00:00
Search period end: 17 October 2024 00:00
Orbit: 762 x 764 km, 98.3° (Epoch: 06 October)

Date Brightness Start Highest point End Pass type
(mag) Time Alt. Az. Time Alt. Az. Time Alt. Az.
07 Oct 5.2 08:38:46 10° NE 08:40:56 21° NE 08:40:56 21° NE visible
07 Oct 4.0 10:17:36 10° N 10:21:05 31° NW 10:21:05 31° NW visible
08 Oct 3.9 09:39:46 10° N 09:43:02 40° N 09:43:02 40° N visible
08 Oct 5.0 11:22:09 10° NW 11:22:53 10° NW 11:23:10 10° WNW visible
09 Oct 4.7 09:02:24 10° NNE 09:04:58 28° NE 09:04:58 28° NE visible
09 Oct 4.4 10:42:08 10° NNW 10:45:07 21° NW 10:45:07 21° NW visible
10 Oct 5.7 08:25:38 10° NE 08:26:55 15° NE 08:26:55 15° NE visible
10 Oct 4.0 10:03:57 10° N 10:07:04 33° NNW 10:07:04 33° NNW visible
11 Oct 4.3 09:26:16 10° NNE 09:29:01 33° NNE 09:29:01 33° NNE visible
11 Oct 4.8 11:07:11 10° NNW 11:09:08 13° NW 11:09:08 13° NW visible
12 Oct 5.2 08:49:05 10° NNE 08:50:57 21° NE 08:50:57 21° NE visible
12 Oct 4.3 10:28:20 10° N 10:31:05 24° NW 10:31:05 24° NW visible
13 Oct 6.0 08:12:42 10° NE 08:12:53 11° NE 08:12:53 11° NE visible
13 Oct 4.2 09:50:20 10° N 09:53:01 31° N 09:53:01 31° N visible
14 Oct 4.9 09:12:49 10° NNE 09:14:57 25° NNE 09:14:57 25° NNE visible
14 Oct 4.7 10:53:01 10° NNW 10:55:06 16° NW 10:55:06 16° NW visible
15 Oct 5.7 08:35:50 10° NE 08:36:53 15° NE 08:36:53 15° NE visible
15 Oct 4.4 10:14:35 10° N 10:17:01 25° NNW 10:17:01 25° NNW visible
16 Oct 4.6 09:36:46 10° N 09:38:57 26° N 09:38:57 26° N visible
16 Oct 5.0 11:18:40 10° NW 11:19:06 10° NW 11:19:06 10° NW visible
